• In Hungary
  • List of Countries
  • For 7 days
  • Water Temperature
  • Satellite Maps
  • Weather Map
  • News
  • Weather Widgets
  • user-avatar
    Login

    Hourly Weather Pernik

    Today, 18 October, Thursday

    Time Temperature Precipitation Wind Pressure Humidity
    00:00 +11°C° 0 mm 1 mps 693 mmHg 73%
    01:00 +11°C° 0 mm 1 mps 693 mmHg 75%
    02:00 +11°C° 0 mm 1 mps 692 mmHg 76%
    03:00 +10°C° 0 mm 1 mps 692 mmHg 78%
    04:00 +10°C° 0 mm 1 mps 692 mmHg 80%
    05:00 +10°C° 0 mm 1 mps 692 mmHg 82%
    06:00 +11°C° 0 mm 1 mps 692 mmHg 79%
    07:00 +11°C° 0 mm 1 mps 692 mmHg 76%
    08:00 +13°C° 0 mm 1 mps 692 mmHg 72%
    09:00 +15°C° 0 mm 1 mps 693 mmHg 65%
    10:00 +18°C° 0 mm 1 mps 693 mmHg 57%
    11:00 +19°C° 0 mm 2 mps 693 mmHg 50%
    12:00 +20°C° 0 mm 2 mps 693 mmHg 47%
    13:00 +20°C° 0 mm 2 mps 693 mmHg 45%
    14:00 +21°C° 0 mm 2 mps 692 mmHg 42%
    15:00 +20°C° 0 mm 2 mps 692 mmHg 46%
    16:00 +20°C° 0 mm 1 mps 692 mmHg 49%
    17:00 +19°C° 0 mm 1 mps 691 mmHg 53%
    18:00 +18°C° 0 mm 1 mps 691 mmHg 60%
    19:00 +15°C° 0 mm 1 mps 691 mmHg 67%
    20:00 +13°C° 0 mm 1 mps 691 mmHg 74%
    21:00 +12°C° 0 mm 1 mps 691 mmHg 77%
    22:00 +12°C° 0 mm 1 mps 691 mmHg 79%
    23:00 +10°C° 0 mm 0 mps 691 mmHg 82%

    Tomorrow, 19 October, Friday

    Time Temperature Precipitation Wind Pressure Humidity
    00:00 +10°C° 0 mm 0 mps 691 mmHg 82%
    01:00 +10°C° 0 mm 0 mps 691 mmHg 82%
    02:00 +10°C° 0 mm 0 mps 691 mmHg 83%
    03:00 +10°C° 0 mm 0 mps 691 mmHg 83%
    04:00 +9°C° 0 mm 0 mps 691 mmHg 84%
    05:00 +9°C° 0 mm 0 mps 691 mmHg 84%
    06:00 +10°C° 0 mm 0 mps 691 mmHg 80%
    07:00 +11°C° 0 mm 0 mps 692 mmHg 76%
    08:00 +12°C° 0 mm 0 mps 692 mmHg 73%
    09:00 +15°C° 0 mm 1 mps 692 mmHg 65%
    10:00 +18°C° 0 mm 1 mps 693 mmHg 58%
    11:00 +20°C° 0 mm 1 mps 693 mmHg 51%
    12:00 +20°C° 0.1 mm 1 mps 693 mmHg 50%
    13:00 +21°C° 0.1 mm 1 mps 693 mmHg 49%
    14:00 +20°C° 0.1 mm 2 mps 693 mmHg 47%
    15:00 +19°C° 0.2 mm 2 mps 693 mmHg 51%
    16:00 +19°C° 0.2 mm 1 mps 692 mmHg 55%
    17:00 +18°C° 0.2 mm 1 mps 692 mmHg 59%
    18:00 +16°C° 0 mm 1 mps 692 mmHg 66%
    19:00 +14°C° 0 mm 1 mps 692 mmHg 73%
    20:00 +12°C° 0 mm 1 mps 692 mmHg 80%
    21:00 +12°C° 0 mm 1 mps 692 mmHg 82%
    22:00 +11°C° 0 mm 1 mps 693 mmHg 84%
    23:00 +11°C° 0 mm 1 mps 693 mmHg 86%

    Day after tomorrow, 20 October, Saturday

    Time Temperature Precipitation Wind Pressure Humidity
    00:00 +10°C° 0 mm 1 mps 693 mmHg 87%
    01:00 +10°C° 0 mm 1 mps 693 mmHg 88%
    02:00 +10°C° 0 mm 1 mps 693 mmHg 88%
    03:00 +9°C° 0 mm 1 mps 693 mmHg 89%
    04:00 +9°C° 0 mm 1 mps 693 mmHg 89%
    05:00 +9°C° 0 mm 1 mps 692 mmHg 89%
    06:00 +10°C° 0 mm 1 mps 693 mmHg 87%
    07:00 +10°C° 0 mm 1 mps 693 mmHg 84%
    08:00 +11°C° 0 mm 1 mps 694 mmHg 81%
    09:00 +12°C° 0.1 mm 1 mps 694 mmHg 75%
    10:00 +14°C° 0.1 mm 2 mps 695 mmHg 68%
    11:00 +15°C° 0.1 mm 2 mps 695 mmHg 61%
    12:00 +15°C° 0.1 mm 2 mps 695 mmHg 59%
    13:00 +16°C° 0.1 mm 3 mps 695 mmHg 56%
    14:00 +17°C° 0.1 mm 3 mps 695 mmHg 53%
    15:00 +16°C° 0 mm 3 mps 694 mmHg 57%
    16:00 +14°C° 0 mm 3 mps 694 mmHg 60%
    17:00 +13°C° 0 mm 3 mps 694 mmHg 64%
    18:00 +13°C° 0 mm 2 mps 694 mmHg 70%
    19:00 +12°C° 0 mm 2 mps 694 mmHg 77%
    20:00 +11°C° 0 mm 1 mps 694 mmHg 83%
    21:00 +10°C° 0 mm 1 mps 695 mmHg 86%
    22:00 +10°C° 0 mm 1 mps 695 mmHg 88%
    23:00 +9°C° 0 mm 1 mps 695 mmHg 91%

    21 October, Sunday

    Time Temperature Precipitation Wind Pressure Humidity
    00:00 +9°C° 0 mm 1 mps 695 mmHg 91%
    01:00 +9°C° 0 mm 1 mps 695 mmHg 91%
    02:00 +9°C° 0 mm 1 mps 694 mmHg 92%
    03:00 +9°C° 0 mm 1 mps 694 mmHg 92%
    04:00 +9°C° 0 mm 1 mps 694 mmHg 92%
    05:00 +9°C° 0 mm 1 mps 694 mmHg 93%
    06:00 +9°C° 0 mm 1 mps 694 mmHg 91%
    07:00 +10°C° 0 mm 1 mps 695 mmHg 88%
    08:00 +10°C° 0 mm 1 mps 695 mmHg 86%
    09:00 +12°C° 0 mm 1 mps 695 mmHg 78%
    10:00 +13°C° 0 mm 2 mps 695 mmHg 70%
    11:00 +15°C° 0 mm 2 mps 695 mmHg 62%
    12:00 +15°C° 0 mm 2 mps 694 mmHg 59%
    13:00 +16°C° 0 mm 2 mps 694 mmHg 57%
    14:00 +16°C° 0 mm 3 mps 693 mmHg 54%
    15:00 +14°C° 0.1 mm 3 mps 693 mmHg 58%
    16:00 +13°C° 0.1 mm 3 mps 692 mmHg 62%
    17:00 +13°C° 0.1 mm 3 mps 692 mmHg 66%
    18:00 +12°C° 0.1 mm 2 mps 692 mmHg 72%
    19:00 +10°C° 0.1 mm 2 mps 692 mmHg 79%
    20:00 +9°C° 0.1 mm 2 mps 691 mmHg 85%
    21:00 +8°C° 0 mm 2 mps 691 mmHg 86%
    22:00 +8°C° 0 mm 2 mps 691 mmHg 86%
    23:00 +8°C° 0 mm 2 mps 691 mmHg 86%

    22 October, Monday

    Time Temperature Precipitation Wind Pressure Humidity
    00:00 +7°C° 0 mm 2 mps 691 mmHg 85%
    01:00 +7°C° 0 mm 2 mps 691 mmHg 84%
    02:00 +6°C° 0 mm 2 mps 690 mmHg 84%
    03:00 +5°C° 0 mm 2 mps 690 mmHg 84%
    04:00 +5°C° 0 mm 2 mps 690 mmHg 84%
    05:00 +4°C° 0 mm 2 mps 690 mmHg 85%
    06:00 +4°C° 0.1 mm 2 mps 690 mmHg 83%
    07:00 +4°C° 0.1 mm 2 mps 690 mmHg 81%
    08:00 +3°C° 0.1 mm 3 mps 690 mmHg 79%
    09:00 +3°C° 0.5 mm 3 mps 690 mmHg 77%
    10:00 +4°C° 0.5 mm 3 mps 690 mmHg 76%
    11:00 +4°C° 0.5 mm 3 mps 691 mmHg 74%
    12:00 +4°C° 0.3 mm 4 mps 690 mmHg 74%
    13:00 +5°C° 0.3 mm 4 mps 690 mmHg 74%
    14:00 +5°C° 0.3 mm 4 mps 690 mmHg 74%
    15:00 +4°C° 0.3 mm 4 mps 690 mmHg 76%
    16:00 +4°C° 0.3 mm 4 mps 690 mmHg 79%
    17:00 +4°C° 0.3 mm 4 mps 690 mmHg 81%
    18:00 +3°C° 0.2 mm 4 mps 690 mmHg 83%
    19:00 +3°C° 0.2 mm 4 mps 691 mmHg 86%
    20:00 +2°C° 0.2 mm 3 mps 691 mmHg 88%
    21:00 +2°C° 0.1 mm 3 mps 691 mmHg 88%
    22:00 +2°C° 0.1 mm 3 mps 691 mmHg 88%
    23:00 +3°C° 0.1 mm 3 mps 691 mmHg 88%

    23 October, Tuesday

    Time Temperature Precipitation Wind Pressure Humidity
    00:00 +3°C° 0 mm 3 mps 691 mmHg 88%
    01:00 +2°C° 0 mm 3 mps 691 mmHg 89%
    02:00 +3°C° 0 mm 2 mps 691 mmHg 89%
    03:00 +3°C° 0.1 mm 2 mps 691 mmHg 89%
    04:00 +3°C° 0.1 mm 3 mps 691 mmHg 89%
    05:00 +3°C° 0.1 mm 3 mps 691 mmHg 88%
    06:00 +4°C° 0 mm 2 mps 690 mmHg 87%
    07:00 +4°C° 0 mm 2 mps 690 mmHg 86%
    08:00 +4°C° 0 mm 2 mps 690 mmHg 85%
    09:00 +6°C° 0 mm 2 mps 690 mmHg 78%
    10:00 +8°C° 0 mm 2 mps 690 mmHg 70%
    11:00 +9°C° 0 mm 3 mps 690 mmHg 63%
    12:00 +10°C° 0 mm 3 mps 690 mmHg 60%
    13:00 +11°C° 0 mm 3 mps 689 mmHg 58%
    14:00 +12°C° 0 mm 3 mps 689 mmHg 55%
    15:00 +12°C° 0 mm 2 mps 688 mmHg 58%
    16:00 +10°C° 0 mm 2 mps 688 mmHg 62%
    17:00 +9°C° 0 mm 2 mps 687 mmHg 65%
    18:00 +8°C° 0 mm 2 mps 687 mmHg 70%
    19:00 +7°C° 0 mm 1 mps 687 mmHg 75%
    20:00 +6°C° 0 mm 1 mps 687 mmHg 79%
    21:00 +5°C° 0 mm 1 mps 687 mmHg 79%
    22:00 +5°C° 0 mm 1 mps 687 mmHg 80%
    23:00 +4°C° 0 mm 1 mps 686 mmHg 80%
    Show more